User: anonymous   Login
Location: Caltech
(34.1382°N, 118.1253°W)
Time: 12:00:26
(UTC-07:00)
Language:

Meteor 1-11 Rocket - Orbit

View from above orbital plane
View from above orbital plane
View from above satellite
View from above satellite

Ground track
Ground track

The orbit data is extracted from the following two-line orbital elements,

1 05918U 72022B   15111.39741920  .00000262  00000-0  15082-3 0  9999
2 05918 081.2398 007.9358 0058982 021.2549 339.1049 14.05765862207319
Epoch (UTC): 21 April 2015 09:32:17
Eccentricity: 0.0058982
inclination: 81.2398°
perigee height: 831 km
apogee height: 916 km
right ascension of ascending node: 7.9358°
argument of perigee: 21.2549°
revolutions per day: 14.05765862
mean anomaly at epoch: 339.1049°
orbit number at epoch: 20731

The dashed part of the orbit path shows where the satellite is in the earth's shadow,  

DLR